Simultaneous Nadir Overpasses (SNOs) Predictions

Prediction of SNOs between TERRA and METOP-C Satellite Orbit:

Table of predicted SNOs for the next 14.0 days since TLE Epoch: 10/17/2023
Index Date (TERRA) Time (TERRA) Lat,Lon (TERRA) SZA (TERRA ) Date (METOP-C) Time (METOP-C) Lat,Lon (METOP-C) SZA (METOP-C ) Distance(km) Time Diff (sec)
1 10/19/2023 09:00:29 80.36, 71.20 91.53 10/19/2023 09:00:11 80.35, 71.04 91.50 3.27 18
2 10/19/2023 09:49:49 -80.46,-120.24 88.31 10/19/2023 09:50:48 -80.47,-120.09 88.26 2.95 59
3 10/22/2023 00:21:38 -80.35, 20.73 87.56 10/22/2023 00:21:11 -80.36, 20.86 87.54 2.73 27
4 10/22/2023 01:10:56 80.44,-170.75 92.61 10/22/2023 01:11:47 80.45,-170.61 92.65 2.78 51
5 10/24/2023 15:42:44 80.33, -29.77 93.34 10/24/2023 15:42:10 80.32, -29.79 93.33 0.38 34
6 10/24/2023 16:32:04 -80.43, 138.85 86.48 10/24/2023 16:32:48 -80.43, 138.85 86.47 0.31 44
7 10/27/2023 07:03:51 -80.32, -80.10 85.76 10/27/2023 07:03:10 -80.32, -80.04 85.77 1.19 41
8 10/27/2023 07:53:09 80.41, 88.35 94.40 10/27/2023 07:53:46 80.41, 88.39 94.41 0.67 37
9 10/29/2023 22:24:55 80.27,-130.88 95.04 10/29/2023 22:24:08 80.27,-130.93 95.02 1.05 47



Historial Predications of SNOs between TERRA and METOP-C
